Regional Weather Roundup
Issued by NWS Kansas City/Pleasant Hill, MO

Home | Current Version | Previous Version | Graphics & Text | Print | Product List | Glossary Off
Versions: 1 2 3 4 5 6 7 8 9 10 11 12 13 14 15 16 17 18 19 20 21 22 23 24 25 26 27 28 29 30 31 32 33 34 35 36 37 38 39 40 41 42 43 44 45 46 47 48 49 50

000
ASUS43 KEAX 020311
RWREAX

WEATHER ROUNDUP FOR EASTERN KANSAS AND NORTHWEST MISSOURI
NATIONAL WEATHER SERVICE KANSAS CITY/PLEASANT HILL MO
1000 PM CDT WED OCT 01 2014

KSZ040-057-103>105-MOZ028-029-037-043-020400-
...KANSAS CITY METROPOLITAN AREA...

CITY           SKY/WX    TMP DP  RH WIND       PRES   REMARKS
K.C. INTL      TSTM      64  64 100 NE10      29.79R
K.C. DOWNTOWN  TSTM      69  66  90 NW12G28   29.79R FOG
LEES SUMMIT    LGT RAIN  68  66  93 CALM      29.78R
OLATHE - IXD   CLOUDY    69  68  96 N15G21    29.79R
OLATHE - OJC   LGT RAIN  68  66  93 NE5       29.78R
LAWRENCE       CLOUDY    66  64  93 E10       29.76F

$$

MOZ001>008-011>017-020>025-030>033-038>040-044>046-053-054-020400-
...NORTHERN AND CENTRAL MISSOURI...

CITY           SKY/WX    TMP DP  RH WIND       PRES   REMARKS
ST. JOSEPH     LGT RAIN  69  67  93 S10       29.76R
MOSBY          TSTM      66  66 100 CALM      29.80R
WHITEMAN AFB   MOCLDY    65  63  94 SE9       29.78R
CLINTON        CLOUDY    68  66  94 CALM      29.78R
SEDALIA        MOCLDY    65  63  93 SE9       29.80F
WARSAW         NOT AVBL
MARSHALL       MOCLDY    68  68 100 E8        29.79S
CHILLICOTHE      N/A     67  65  93 E3        29.78F
MOBERLY        LGT RAIN  66  63  88 SE8       29.83S
KIRKSVILLE     CLOUDY    66  65  96 S3        29.80F

$$

MOZ041-047>049-056>058-063>065-088>090-097-020400-
...EASTERN AND SOUTHERN MISSOURI...

CITY           SKY/WX    TMP DP  RH WIND       PRES   REMARKS
ST. LOUIS INTL CLOUDY    74  65  73 NW12G18   29.86R
SPIRIT OF STL  LGT RAIN  71  67  87 N5        29.85R
COLUMBIA       CLOUDY    67  66  97 N8        29.85R
MEXICO         RAIN     N/A N/A N/A N3        29.86
HANNIBAL       CLOUDY    68  66  94 SE7       29.83S
ROLLA          CLOUDY    67  62  84 E5        29.84S
LEBANON        PTCLDY    75  66  73 S7        29.84R
OSAGE BEACH    MOCLDY    68  61  77 E5        29.82S
SPRINGFIELD    PTCLDY    76  66  71 S13       29.81S
BRANSON        CLEAR     75  66  73 SE8       29.85S
NEVADA         CLOUDY    75  66  73 S10       29.77S
JOPLIN         CLEAR     77  66  68 S18       29.77R
WEST PLAINS    CLEAR     73  67  81 S10       29.89S

$$

IAZ060-094-KSZ022-034>040-054-083-096-NEZ052-066-093-020400-
...KANSAS...SOUTHEAST NEBRASKA AND IOWA...

CITY           SKY/WX    TMP DP  RH WIND       PRES   REMARKS
TOPEKA         CLOUDY    67  66  97 VRB3      29.74F
MANHATTAN      CLEAR     67  64  90 NE6       29.73R
EMPORIA        CLOUDY    68  65  90 E8        29.72R
CHANUTE        PTCLDY    76  68  76 S17G23    29.72R
WICHITA        PTCLDY    70  50  49 W9        29.69R
OMAHA          MOCLDY    66  61  84 E3        29.78S
LINCOLN        PTCLDY    66  61  84 N3        29.79R
FALLS CITY     MOCLDY    69  66  90 E5        29.75R
LAMONI         CLOUDY    65  64  97 SE3       29.80S FOG
DES MOINES     PTCLDY    66  63  90 SE3       29.81R FOG

$$



USA.gov is the U.S. government's official web portal to all federal, state and local government web resources and services.